Fort Atkinson, Wisconsin, United States (53538)
Lat: 42.93N, Lon: 88.84W
Wx Zone: WIZ064
Local Info
Past Weather Observations for Today

NOTE: This archive is for the closest National Weather Service station to Fort Atkinson. Information may differ from the station used for current weather conditions.

Click here for Long-term Archive

Time Weather Temperature Dewpoint Humidity Pressure Winds Precip Visibility
16:35
Clear
61°F / 16°C 36°F / 2°C 39% 29.53 in
(1000 mb)
E 13.8 mph
(E 22 kph)
- 10SM
16:15
Clear
63°F / 17°C 36°F / 2°C 37% 29.53 in
(1000 mb)
E 9.2 mph
(E 15 kph)
- 10SM
15:55
Clear
64°F / 18°C 36°F / 2°C 34% 29.53 in
(1000 mb)
SE 16.1 mph
(SE 26 kph)
- 10SM
15:35
Clear
64°F / 18°C 36°F / 2°C 34% 29.56 in
(1001 mb)
E 13.8 mph
(E 22 kph)
- 10SM
15:15
Clear
64°F / 18°C 37°F / 3°C 37% 29.56 in
(1001 mb)
E 16.1 mph
(E 26 kph)
- 10SM
14:55
Clear
66°F / 19°C 37°F / 3°C 35% 29.56 in
(1001 mb)
E 13.8 mph
(E 22 kph)
- 10SM
14:35
Clear
66°F / 19°C 37°F / 3°C 35% 29.59 in
(1002 mb)
E 15 mph
(E 24 kph)
- 10SM
14:15
Clear
70°F / 21°C 39°F / 4°C 33% 29.59 in
(1002 mb)
SE 13.8 mph
(SE 22 kph)
- 10SM
13:55
Clear
70°F / 21°C 39°F / 4°C 33% 29.59 in
(1002 mb)
ESE 16.1 mph
(ESE 26 kph)
- 10SM
13:35
Clear
68°F / 20°C 39°F / 4°C 35% 29.62 in
(1003 mb)
SE 15 mph
(SE 24 kph)
- 10SM
13:15
Clear
68°F / 20°C 39°F / 4°C 35% 29.62 in
(1003 mb)
ESE 15 mph
(ESE 24 kph)
- 10SM
12:55
Clear
70°F / 21°C 39°F / 4°C 33% 29.65 in
(1004 mb)
E 15 mph
(E 24 kph)
- 10SM
12:35
Clear
68°F / 20°C 39°F / 4°C 35% 29.65 in
(1004 mb)
SE 13.8 mph
(SE 22 kph)
- 10SM
12:15
Clear
68°F / 20°C 39°F / 4°C 35% 29.68 in
(1005 mb)
SE 13.8 mph
(SE 22 kph)
- 10SM
11:55
Clear
68°F / 20°C 39°F / 4°C 35% 29.68 in
(1005 mb)
SE 15 mph
(SE 24 kph)
- 10SM
11:35
Clear
66°F / 19°C 37°F / 3°C 35% 29.71 in
(1006 mb)
SE 13.8 mph
(SE 22 kph)
- 10SM
11:15
Clear
68°F / 20°C 39°F / 4°C 35% 29.71 in
(1006 mb)
ESE 16.1 mph
(ESE 26 kph)
- 10SM
10:55
Clear
68°F / 20°C 39°F / 4°C 35% 29.74 in
(1007 mb)
ESE 15 mph
(ESE 24 kph)
- 10SM
10:35
Clear
64°F / 18°C 37°F / 3°C 37% 29.74 in
(1007 mb)
E 15 mph
(E 24 kph)
- 10SM
10:15
Clear
64°F / 18°C 37°F / 3°C 37% 29.74 in
(1007 mb)
ESE 16.1 mph
(ESE 26 kph)
- 10SM
09:55
Clear
63°F / 17°C 37°F / 3°C 39% 29.77 in
(1008 mb)
SE 15 mph
(SE 24 kph)
- 10SM
09:35
Clear
63°F / 17°C 36°F / 2°C 37% 29.77 in
(1008 mb)
SE 11.5 mph
(SE 19 kph)
- 10SM
09:15
Clear
61°F / 16°C 36°F / 2°C 39% 29.77 in
(1008 mb)
ESE 16.1 mph
(ESE 26 kph)
- 10SM
08:55
Clear
61°F / 16°C 36°F / 2°C 39% 29.8 in
(1009 mb)
SE 15 mph
(SE 24 kph)
- 10SM
08:35
Clear
57°F / 14°C 34°F / 1°C 41% 29.8 in
(1009 mb)
SE 10.4 mph
(SE 17 kph)
- 10SM
08:15
Partly Cloudy
55°F / 13°C 32°F / 0°C 41% 29.83 in
(1010 mb)
ESE 13.8 mph
(ESE 22 kph)
- 10SM
07:55
Mostly Cloudy
54°F / 12°C 34°F / 1°C 47% 29.83 in
(1010 mb)
ESE 9.2 mph
(ESE 15 kph)
- 10SM
07:35
Clear
54°F / 12°C 32°F / 0°C 44% 29.83 in
(1010 mb)
ESE 11.5 mph
(ESE 19 kph)
- 10SM
07:15
Clear
52°F / 11°C 34°F / 1°C 50% 29.86 in
(1011 mb)
E 11.5 mph
(E 19 kph)
- 10SM
06:55
Clear
48°F / 9°C 32°F / 0°C 54% 29.86 in
(1011 mb)
ESE 10.4 mph
(ESE 17 kph)
- 10SM
Time Weather Temperature Dewpoint Humidity Pressure Winds Precip Visibility


Weather for websites

WeatherForYou.com, LLC is not responsible for any damages or problems caused by this service. Current weather conditions are obtained from the closest station including government and personal stations which may have varying degrees of accuracy. Weather forecasts are derived from the NOAA NDFD. Like all things, this site belongs to Jesus Christ... He just trusts me to maintain it. If you have any questions or comments email webmaster@weatherforyou.com

Copyright © 2015, WeatherForYou.com LLC. All rights reserved.